* Astronomy

Members Login
Post Info TOPIC: Asteroid 2010 OF101


L

Posts: 131433
Date:
Asteroid 2010 OF101
Permalink  
 


Orbital elements:
2010 OF101 Earth MOID = 0.0633 AU
Epoch 2010 July 23.0 TT = JDT 2455400.5 MPC
M 126.01346 (2000.0) P Q
n 1.06605199 Peri. 282.26360 -0.66207495 -0.71881941
a 0.9490384 Node 212.53665 +0.74303883 -0.66649522
e 0.3229673 Incl. 23.21734 -0.09772445 -0.19769367
P 0.92 H 19.5 G 0.15 U 8

MPEC 2010 - P12


__________________
Page 1 of 1  sorted by
 
Quick Reply

Please log in to post quick replies.



Create your own FREE Forum
Report Abuse
Powered by ActiveBoard